Time,TemperatureF,DewpointF,PressureIn,WindDirection,WindDirectionDegrees,WindSpeedMPH,WindSpeedGustMPH,Humidity,HourlyPrecipIn,Conditions,Clouds,dailyrainin,SolarRadiationWatts/m^2,SoftwareType,DateUTC
2013-01-20 00:13:00,20.5,7.0,29.87,WNW,301,10.0,15.0,56,0.00,,,0.00,0,weatherlink.com 1.10,2013-01-20 06:13:00,
2013-01-20 00:28:00,18.9,5.0,29.89,NW,309,13.0,21.0,55,0.00,,,0.00,0,weatherlink.com 1.10,2013-01-20 06:28:00,
2013-01-20 00:43:00,17.9,5.0,29.91,NW,317,5.0,18.0,58,0.00,,,0.00,0,weatherlink.com 1.10,2013-01-20 06:43:00,
2013-01-20 00:58:00,17.1,5.0,29.93,West,277,6.0,25.0,59,0.00,,,0.00,0,weatherlink.com 1.10,2013-01-20 06:58:00,
2013-01-20 01:13:00,16.4,5.0,29.95,WNW,292,6.0,16.0,60,0.00,,,0.00,0,weatherlink.com 1.10,2013-01-20 07:13:00,
2013-01-20 01:43:00,15.0,2.0,29.98,NW,319,8.0,17.0,56,0.00,,,0.00,0,weatherlink.com 1.10,2013-01-20 07:43:00,
2013-01-20 01:58:00,14.5,2.0,29.99,West,267,4.0,16.0,58,0.00,,,0.00,0,weatherlink.com 1.10,2013-01-20 07:58:00,
2013-01-20 02:13:00,14.0,2.0,30.00,West,277,18.0,21.0,58,0.00,,,0.00,0,weatherlink.com 1.10,2013-01-20 08:13:00,
2013-01-20 02:28:00,13.4,2.0,30.02,NW,307,6.0,16.0,60,0.00,,,0.00,0,weatherlink.com 1.10,2013-01-20 08:28:00,
2013-01-20 02:43:00,13.0,1.0,30.04,NW,313,3.0,12.0,60,0.00,,,0.00,0,weatherlink.com 1.10,2013-01-20 08:43:00,
2013-01-20 02:58:00,12.6,1.0,30.06,WNW,300,7.0,14.0,61,0.00,,,0.00,0,weatherlink.com 1.10,2013-01-20 08:58:00,
2013-01-20 03:13:00,12.4,2.0,30.07,North,355,5.0,12.0,62,0.00,,,0.00,0,weatherlink.com 1.10,2013-01-20 09:13:00,
2013-01-20 03:28:00,11.7,1.0,30.09,WNW,302,2.0,18.0,61,0.00,,,0.00,0,weatherlink.com 1.10,2013-01-20 09:28:00,
2013-01-20 03:43:00,11.6,1.0,30.09,NW,319,6.0,15.0,62,0.00,,,0.00,0,weatherlink.com 1.10,2013-01-20 09:43:00,
2013-01-20 03:58:00,11.4,0.0,30.10,WNW,296,5.0,13.0,61,0.00,,,0.00,0,weatherlink.com 1.10,2013-01-20 09:58:00,
2013-01-20 04:13:00,11.4,1.0,30.11,NW,325,2.0,13.0,62,0.00,,,0.00,0,weatherlink.com 1.10,2013-01-20 10:13:00,
2013-01-20 04:29:00,11.2,0.0,30.13,West,277,11.0,13.0,62,0.00,,,0.00,0,weatherlink.com 1.10,2013-01-20 10:29:00,
2013-01-20 04:44:00,11.0,0.0,30.13,NNW,345,4.0,13.0,62,0.00,,,0.00,0,weatherlink.com 1.10,2013-01-20 10:44:00,
2013-01-20 04:59:00,10.8,0.0,30.14,West,278,2.0,9.0,63,0.00,,,0.00,0,weatherlink.com 1.10,2013-01-20 10:59:00,
2013-01-20 05:14:00,10.7,0.0,30.15,NNE,14,6.0,15.0,63,0.00,,,0.00,0,weatherlink.com 1.10,2013-01-20 11:14:00,
2013-01-20 05:29:00,10.5,1.0,30.16,NW,321,6.0,13.0,64,0.00,,,0.00,0,weatherlink.com 1.10,2013-01-20 11:29:00,
2013-01-20 05:44:00,10.4,0.0,30.17,NNW,337,2.0,9.0,64,0.00,,,0.00,0,weatherlink.com 1.10,2013-01-20 11:44:00,
2013-01-20 05:59:00,10.2,1.0,30.18,NW,311,7.0,10.0,65,0.00,,,0.00,0,weatherlink.com 1.10,2013-01-20 11:59:00,
2013-01-20 06:14:00,10.0,0.0,30.19,WNW,292,4.0,11.0,65,0.00,,,0.00,0,weatherlink.com 1.10,2013-01-20 12:14:00,
2013-01-20 06:29:00,9.9,0.0,30.19,NW,309,3.0,13.0,65,0.00,,,0.00,0,weatherlink.com 1.10,2013-01-20 12:29:00,
2013-01-20 06:44:00,9.8,1.0,30.19,WNW,302,5.0,11.0,66,0.00,,,0.00,0,weatherlink.com 1.10,2013-01-20 12:44:00,
2013-01-20 06:59:00,9.8,1.0,30.20,WNW,296,5.0,13.0,66,0.00,,,0.00,0,weatherlink.com 1.10,2013-01-20 12:59:00,
2013-01-20 07:14:00,9.6,0.0,30.21,WNW,298,2.0,16.0,66,0.00,,,0.00,5,weatherlink.com 1.10,2013-01-20 13:14:00,
2013-01-20 07:29:00,9.5,0.0,30.21,NW,305,5.0,12.0,66,0.00,,,0.00,11,weatherlink.com 1.10,2013-01-20 13:29:00,
2013-01-20 07:44:00,9.5,1.0,30.23,NE,50,2.0,12.0,67,0.00,,,0.00,12,weatherlink.com 1.10,2013-01-20 13:44:00,
2013-01-20 07:59:00,9.4,0.0,30.23,NNW,343,4.0,11.0,67,0.00,,,0.00,18,weatherlink.com 1.10,2013-01-20 13:59:00,
2013-01-20 08:14:00,9.6,1.0,30.25,West,275,2.0,10.0,67,0.00,,,0.00,25,weatherlink.com 1.10,2013-01-20 14:14:00,
2013-01-20 08:29:00,9.9,1.0,30.26,NW,317,5.0,11.0,67,0.00,,,0.00,28,weatherlink.com 1.10,2013-01-20 14:29:00,
2013-01-20 08:44:00,9.9,1.0,30.26,NW,309,7.0,14.0,66,0.00,,,0.00,32,weatherlink.com 1.10,2013-01-20 14:44:00,
2013-01-20 08:59:00,10.7,1.0,30.26,NNW,329,7.0,9.0,66,0.00,,,0.00,39,weatherlink.com 1.10,2013-01-20 14:59:00,
2013-01-20 09:15:00,10.8,1.0,30.28,SE,131,2.0,12.0,64,0.00,,,0.00,195,weatherlink.com 1.10,2013-01-20 15:15:00,
2013-01-20 09:30:00,11.9,2.0,30.28,NW,309,4.0,9.0,64,0.00,,,0.00,153,weatherlink.com 1.10,2013-01-20 15:30:00,
2013-01-20 09:45:00,11.6,2.0,30.28,NW,313,2.0,10.0,64,0.00,,,0.00,188,weatherlink.com 1.10,2013-01-20 15:45:00,
2013-01-20 10:00:00,11.9,1.0,30.28,North,5,3.0,9.0,63,0.00,,,0.00,153,weatherlink.com 1.10,2013-01-20 16:00:00,
2013-01-20 10:15:00,11.8,1.0,30.28,WNW,288,3.0,8.0,63,0.00,,,0.00,174,weatherlink.com 1.10,2013-01-20 16:15:00,
2013-01-20 10:30:00,12.1,2.0,30.29,WNW,292,1.0,9.0,63,0.00,,,0.00,188,weatherlink.com 1.10,2013-01-20 16:30:00,
2013-01-20 10:45:00,12.4,2.0,30.29,NW,311,5.0,10.0,62,0.00,,,0.00,181,weatherlink.com 1.10,2013-01-20 16:45:00,
2013-01-20 11:00:00,13.5,2.0,30.28,NNW,348,4.0,8.0,60,0.00,,,0.00,276,weatherlink.com 1.10,2013-01-20 17:00:00,
2013-01-20 11:15:00,13.1,1.0,30.28,NW,315,2.0,11.0,59,0.00,,,0.00,214,weatherlink.com 1.10,2013-01-20 17:15:00,
2013-01-20 11:30:00,13.6,2.0,30.27,WNW,292,4.0,9.0,60,0.00,,,0.00,415,weatherlink.com 1.10,2013-01-20 17:30:00,
2013-01-20 11:45:00,14.3,2.0,30.27,West,280,6.0,9.0,59,0.00,,,0.00,380,weatherlink.com 1.10,2013-01-20 17:45:00,
2013-01-20 12:00:00,15.0,3.0,30.27,NW,324,3.0,13.0,58,0.00,,,0.00,327,weatherlink.com 1.10,2013-01-20 18:00:00,
2013-01-20 12:15:00,14.9,2.0,30.27,WNW,288,1.0,9.0,58,0.00,,,0.00,244,weatherlink.com 1.10,2013-01-20 18:15:00,
2013-01-20 12:31:00,14.8,2.0,30.26,WNW,290,2.0,8.0,57,0.00,,,0.00,237,weatherlink.com 1.10,2013-01-20 18:31:00,
2013-01-20 12:46:00,15.0,2.0,30.26,NNW,343,4.0,10.0,57,0.00,,,0.00,257,weatherlink.com 1.10,2013-01-20 18:46:00,
2013-01-20 13:01:00,16.2,2.0,30.25,WNW,300,4.0,9.0,54,0.00,,,0.00,316,weatherlink.com 1.10,2013-01-20 19:01:00,
2013-01-20 13:16:00,15.7,2.0,30.25,WNW,301,3.0,7.0,54,0.00,,,0.00,237,weatherlink.com 1.10,2013-01-20 19:16:00,
2013-01-20 13:31:00,16.7,2.0,30.24,NNW,327,5.0,9.0,53,0.00,,,0.00,178,weatherlink.com 1.10,2013-01-20 19:31:00,
2013-01-20 13:46:00,16.5,2.0,30.23,NW,325,3.0,9.0,52,0.00,,,0.00,294,weatherlink.com 1.10,2013-01-20 19:46:00,
2013-01-20 14:01:00,16.3,1.0,30.25,WNW,285,3.0,11.0,50,0.00,,,0.00,186,weatherlink.com 1.10,2013-01-20 20:01:00,
2013-01-20 14:16:00,16.6,1.0,30.24,North,355,4.0,8.0,50,0.00,,,0.00,193,weatherlink.com 1.10,2013-01-20 20:16:00,
2013-01-20 14:31:00,16.4,0.0,30.24,NW,311,3.0,8.0,49,0.00,,,0.00,299,weatherlink.com 1.10,2013-01-20 20:31:00,
2013-01-20 14:46:00,16.0,0.0,30.25,NE,34,5.0,9.0,50,0.00,,,0.00,32,weatherlink.com 1.10,2013-01-20 20:46:00,
2013-01-20 15:01:00,16.4,0.0,30.25,NW,321,5.0,12.0,48,0.00,,,0.00,28,weatherlink.com 1.10,2013-01-20 21:01:00,
2013-01-20 15:16:00,16.4,1.0,30.25,NW,322,4.0,13.0,50,0.00,,,0.00,28,weatherlink.com 1.10,2013-01-20 21:16:00,
2013-01-20 15:31:00,16.2,-1.0,30.25,NW,305,2.0,9.0,47,0.00,,,0.00,28,weatherlink.com 1.10,2013-01-20 21:31:00,
2013-01-20 15:47:00,16.3,0.0,30.25,NW,307,4.0,7.0,48,0.00,,,0.00,30,weatherlink.com 1.10,2013-01-20 21:47:00,
2013-01-20 16:17:00,16.1,0.0,30.25,NW,306,2.0,9.0,50,0.00,,,0.00,25,weatherlink.com 1.10,2013-01-20 22:17:00,
2013-01-20 17:02:00,15.7,0.0,30.25,NW,326,1.0,6.0,51,0.00,,,0.00,0,weatherlink.com 1.10,2013-01-20 23:02:00,
2013-01-20 17:17:00,15.5,0.0,30.25,NNW,336,1.0,9.0,51,0.00,,,0.00,0,weatherlink.com 1.10,2013-01-20 23:17:00,
2013-01-20 17:32:00,15.5,1.0,30.26,WNW,296,3.0,6.0,53,0.00,,,0.00,0,weatherlink.com 1.10,2013-01-20 23:32:00,
2013-01-20 17:47:00,15.2,1.0,30.25,WNW,292,2.0,3.0,54,0.00,,,0.00,0,weatherlink.com 1.10,2013-01-20 23:47:00,
2013-01-20 18:02:00,14.9,1.0,30.25,NW,311,2.0,6.0,54,0.00,,,0.00,0,weatherlink.com 1.10,2013-01-21 00:02:00,
2013-01-20 18:17:00,14.8,1.0,30.25,NW,315,0.0,5.0,54,0.00,,,0.00,0,weatherlink.com 1.10,2013-01-21 00:17:00,
2013-01-20 18:32:00,14.5,1.0,30.25,WNW,302,1.0,5.0,55,0.00,,,0.00,0,weatherlink.com 1.10,2013-01-21 00:32:00,
2013-01-20 18:47:00,14.3,1.0,30.26,NW,307,0.0,5.0,56,0.00,,,0.00,0,weatherlink.com 1.10,2013-01-21 00:47:00,
2013-01-20 19:02:00,14.0,1.0,30.26,NW,312,2.0,3.0,57,0.00,,,0.00,0,weatherlink.com 1.10,2013-01-21 01:02:00,
2013-01-20 19:18:00,14.0,2.0,30.25,NW,305,0.0,3.0,58,0.00,,,0.00,0,weatherlink.com 1.10,2013-01-21 01:18:00,
2013-01-20 19:33:00,13.8,2.0,30.25,NW,304,0.0,2.0,59,0.00,,,0.00,0,weatherlink.com 1.10,2013-01-21 01:33:00,
2013-01-20 19:48:00,14.1,2.0,30.25,NW,306,0.0,3.0,59,0.00,,,0.00,0,weatherlink.com 1.10,2013-01-21 01:48:00,
2013-01-20 20:03:00,14.3,2.0,30.24,WNW,303,2.0,3.0,59,0.00,,,0.00,0,weatherlink.com 1.10,2013-01-21 02:03:00,
2013-01-20 20:18:00,13.9,2.0,30.24,WNW,289,0.0,3.0,60,0.00,,,0.00,0,weatherlink.com 1.10,2013-01-21 02:18:00,
2013-01-20 20:33:00,13.7,2.0,30.23,West,281,1.0,3.0,60,0.00,,,0.00,0,weatherlink.com 1.10,2013-01-21 02:33:00,
2013-01-20 20:48:00,13.7,2.0,30.23,SSW,196,0.0,2.0,61,0.00,,,0.00,0,weatherlink.com 1.10,2013-01-21 02:48:00,
2013-01-20 21:03:00,13.9,2.0,30.23,WNW,300,1.0,3.0,60,0.00,,,0.00,0,weatherlink.com 1.10,2013-01-21 03:03:00,
2013-01-20 21:18:00,13.9,2.0,30.22,WNW,296,1.0,4.0,59,0.00,,,0.00,0,weatherlink.com 1.10,2013-01-21 03:18:00,
2013-01-20 21:33:00,13.9,2.0,30.23,WNW,283,1.0,5.0,58,0.00,,,0.00,0,weatherlink.com 1.10,2013-01-21 03:33:00,
2013-01-20 21:48:00,13.7,1.0,30.22,WNW,288,1.0,6.0,58,0.00,,,0.00,0,weatherlink.com 1.10,2013-01-21 03:48:00,
2013-01-20 22:03:00,13.5,2.0,30.22,WNW,296,2.0,4.0,59,0.00,,,0.00,0,weatherlink.com 1.10,2013-01-21 04:03:00,
2013-01-20 22:18:00,13.5,2.0,30.22,NW,305,3.0,3.0,60,0.00,,,0.00,0,weatherlink.com 1.10,2013-01-21 04:18:00,
2013-01-20 22:33:00,13.5,2.0,30.21,WNW,293,1.0,3.0,60,0.00,,,0.00,0,weatherlink.com 1.10,2013-01-21 04:33:00,
2013-01-20 22:49:00,13.4,2.0,30.22,NW,309,0.0,4.0,61,0.00,,,0.00,0,weatherlink.com 1.10,2013-01-21 04:49:00,
2013-01-20 23:04:00,13.2,2.0,30.21,WNW,298,0.0,4.0,61,0.00,,,0.00,0,weatherlink.com 1.10,2013-01-21 05:04:00,
2013-01-20 23:19:00,13.1,2.0,30.21,NW,307,1.0,4.0,62,0.00,,,0.00,0,weatherlink.com 1.10,2013-01-21 05:19:00,
2013-01-20 23:34:00,13.1,2.0,30.20,NNE,15,2.0,6.0,60,0.00,,,0.00,0,weatherlink.com 1.10,2013-01-21 05:34:00,
2013-01-20 23:49:00,13.1,1.0,30.19,WNW,287,2.0,7.0,59,0.00,,,0.00,0,weatherlink.com 1.10,2013-01-21 05:49:00,